Location: ????
(55.5675°N, 37.6272°E)
Time: 11:48:46
(UTC+00:00)

Cosmos 1733 Rocket - Pass Details

Date: 14 April 2026
Orbit: 597 x 619 km, 82.5° (Epoch: 10 May)

Event Time Altitude Azimuth Distance (km) Brightness Sun altitude
Exits shadow 17:43:48 - 157° (SSE) 2,094 5.3 -9.8°
Reaches altitude 10° 17:44:09 10° 155° (SSE) 1,966 5.1 -9.8°
Maximum altitude 17:48:04 34° 91° (E) 1,022 3.8 -10.3°
Drops below altitude 10° 17:52:03 10° 26° (NNE) 1,992 5.8 -10.8°
Sets 17:54:26 0° 18° (NNE) 2,905 6.8 -11.0°
